BEIDOU-3 G3

Last updated on Mon Jun 22 2026 00:03:07 GMT+0000 (Coordinated Universal Time)

1 45807U 20040A 26172.05961119 -.00000357 00000+0 00000+0 0 9994 2 45807 2.4578 67.5071 0002606 323.9742 9.6886 1.00277648 22109
UTC large
Height (km)
Speed (km/s)
/
Latitude / Longitude
Inclination (degrees)
Orbital Period (minutes)
Azimuth
Elevation
Range (km)
Doppler Factor

Next 0 passes for location: London (51.5072 / 0.1276)

No passes found over London.
BEIDOU-3 G3